Location: Hiekkapohja
(62.3333°N, 25.7833°E)
Time: 06:59:31
(UTC+00:00)

Cosmos 1655 Rocket - Pass Details

Date: 07 August 2020
Orbit: 970 x 1007 km, 83.0° (Epoch: 20 September)

Event Time Altitude Azimuth Distance (km) Brightness Sun altitude
Rises 00:41:45 0° 345° (NNW) 3,720 7.7 -6.7°
Reaches altitude 10° 00:44:18 10° 343° (NNW) 2,762 7.0 -6.5°
Maximum altitude 00:50:34 66° 263° (W) 1,070 4.1 -6.1°
Drops below altitude 10° 00:56:44 10° 183° (S) 2,722 5.8 -5.7°
Sets 00:59:14 0° 181° (S) 3,663 6.5 -5.5°
